Location: Bethmale
(42.8681°N, 1.0861°E)
Time: 14:01:19
(UTC+00:00)

Daily predictions for brighter satellites

Satellite Brightness Start Highest point End
(mag) Time Altitude Azimuth Time Altitude Azimuth Time Altitude Azimuth
NOSS 2-1 (D) 4.3 20:00:51 10° NW 20:05:38 81° SW 20:12:29 10° SSE
TSX-5 4.4 20:06:15 10° SSW 20:10:43 86° ESE 20:16:35 10° NNE
Resurs 01 Rocket 1.7 20:11:40 10° SSE 20:16:05 67° ENE 20:20:31 10° N
COSMOS 2406 4.1 20:13:48 10° SSE 20:18:41 29° ESE 20:23:34 10° NE
Cosmos 1833 Rocket 2.8 20:18:42 10° S 20:24:09 55° ESE 20:29:38 10° NNE
Cosmos 2184 Rocket 4.4 20:19:06 10° N 20:25:02 46° ENE 20:30:59 10° SSE
H-2A R/B 2.2 20:23:06 10° NNE 20:27:35 87° WNW 20:32:06 10° SSW
Cosmos 1536 Rocket 3.6 20:26:02 10° S 20:30:17 61° E 20:34:36 10° NNE
Cosmos 1703 3.6 20:27:48 10° SSE 20:31:28 45° E 20:35:09 10° NNE
CARTOSAT-1 4.0 20:29:15 10° SSE 20:33:22 48° ENE 20:37:32 10° N
Cosmos 1741 Rocket 4.1 20:29:42 10° NNW 20:35:02 68° ENE 20:40:03 11° SSE
USA 245 4.0 20:32:00 12° SE 20:35:15 33° ENE 20:38:13 10° N
Ariane Rocket 3.0 20:32:18 10° SSE 20:37:23 77° ENE 20:42:29 10° N
PSLV R/B 4.4 20:38:56 10° N 20:43:03 64° WNW 20:47:11 10° SSW
ARIANE 5 R/B 4.4 20:44:14 11° ESE 20:47:05 18° ENE 20:50:06 10° NNE
CZ-4B R/B 1.3 20:44:16 10° N 20:47:09 68° WNW 20:50:01 10° SSW
Terra 3.1 20:44:04 13° ESE 20:47:24 26° ENE 20:51:21 10° N
SPOT 3 Rocket 3.7 20:44:20 12° SSE 20:49:00 63° ENE 20:54:10 10° N
ATLAS 2AS CENTAUR R/B 3.7 20:43:42 10° NW 20:50:02 39° WSW 20:56:01 10° S
SPOT 5 3.4 20:46:56 15° SE 20:50:04 37° ENE 20:54:03 10° N
USA 276 4.5 20:50:14 10° NW 20:52:38 21° N 20:55:01 10° NE
RESURS DK-1 2.6 20:49:25 10° NNW 20:53:32 67° WSW 20:56:54 15° SSE
Cosmos 1271 Rocket 4.3 20:52:20 10° NNW 20:55:55 34° W 20:59:28 10° SSW
Cosmos 1455 3.6 20:52:41 10° NNW 20:56:13 36° W 20:59:43 10° SSW
SL-24 R/B 4.5 20:52:19 10° S 20:56:40 74° WSW 21:01:44 10° NNW
Cosmos 1726 Rocket 4.5 20:54:57 10° N 20:58:50 32° ENE 21:01:15 19° SE
Cosmos 1850 Rocket 4.2 20:55:29 10° NNW 21:00:39 69° WSW 21:05:09 14° S
Cosmos 1331 Rocket 4.1 20:55:57 10° SSW 21:01:15 87° WNW 21:06:35 10° NNE
Cosmos 2082 Rocket 2.5 20:56:55 10° S 21:02:20 46° ESE 21:07:46 10° NE
IRAS Rocket 4.3 20:58:13 10° NNE 21:03:50 87° WNW 21:09:22 10° SSW
Cosmos 2074 Rocket 4.0 20:59:09 10° N 21:05:26 85° W 21:11:21 12° S
Helios 1A Rocket 3.3 21:04:55 21° SE 21:07:22 49° ENE 21:11:21 10° N
Spot 2 Rocket 3.7 21:04:02 18° SSE 21:07:44 61° ENE 21:12:47 10° N
Cosmos 1328 4.0 21:05:03 19° SSE 21:07:44 51° E 21:11:37 10° NNE
Cosmos 2360 4.2 21:01:58 10° NNW 21:07:44 87° ENE 21:11:58 19° SSE
Cosmos 2084 Rocket 3.3 21:07:39 10° NNW 21:11:35 71° NE 21:13:53 24° SE
Nadezhda 1 Rocket 3.9 21:06:55 10° S 21:12:57 76° E 21:19:02 10° N
GEOS 3 Rocket 4.0 21:09:16 17° SSE 21:13:05 54° WSW 21:18:07 10° NW
Lacrosse 5 4.2 21:12:12 10° W 21:14:57 15° WSW 21:17:40 10° SSW
Cosmos 1900 4.5 21:10:29 10° NW 21:15:39 76° WSW 21:18:57 22° SSE
Delta 2 Rocket 4.2 21:14:57 10° WSW 21:17:32 21° S 21:17:32 21° S
Cosmos 1295 Rocket 4.4 21:13:06 10° N 21:19:20 82° E 21:23:57 19° S
X-37B 0.6 21:22:27 10° W 21:25:10 46° SSW 21:25:27 43° S
ERS-1 Rocket 2.9 21:22:07 23° SSE 21:25:19 77° ENE 21:30:21 10° N
Cosmos 1892 3.5 21:26:26 29° ESE 21:27:17 33° E 21:30:43 10° NNE
Meteor 1-21 Rocket 4.5 21:24:14 10° SSW 21:29:48 70° WNW 21:35:31 10° N
Cosmos 1302 Rocket 3.9 21:28:09 10° SSW 21:33:21 88° ESE 21:38:34 10° NNE
Cosmos 2228 3.9 21:32:23 10° NNW 21:36:26 45° W 21:39:22 17° SSW
Cosmos 192 4.5 21:31:45 10° SSW 21:36:38 73° WNW 21:41:32 10° NNE
SL-8 R/B 4.4 21:32:58 10° WNW 21:37:29 41° SW 21:39:18 29° S
Cosmos 2154 Rocket 4.3 21:33:38 10° NNW 21:39:46 66° W 21:44:32 17° S
Cosmos 1892 Rocket 3.4 21:38:01 26° S 21:40:27 81° E 21:44:50 10° N
Cosmos 968 Rocket 3.4 21:38:41 10° NNW 21:43:56 87° ENE 21:46:30 31° SSE
Cosmos 1697 Rocket 3.5 21:41:05 10° NW 21:46:24 44° WSW 21:49:51 20° SSW
Cosmos 1980 Rocket 2.2 21:41:31 10° NNW 21:47:15 87° WSW 21:50:07 31° SSE
Cosmos 1408 2.3 21:48:44 50° S 21:49:32 82° E 21:53:00 10° N
SL-16 R/B 3.5 21:44:55 10° N 21:49:49 29° NE 21:52:57 18° E
Cosmos 1626 Rocket 4.3 21:50:06 31° ESE 21:50:46 33° E 21:54:41 10° NNE
Cosmos 2058 Rocket 3.1 21:47:21 10° N 21:51:48 70° E 21:53:20 39° SSE
ATLAS 5 CENTAUR R/B 1.0 21:50:51 31° SSW 21:52:31 75° ESE 21:56:32 10° NE
Resurs 01 Rocket 4.3 21:51:20 10° WSW 21:53:00 12° W 21:54:42 10° WNW
SL-8 Rocket 4.1 21:48:53 10° N 21:55:04 64° E 21:58:01 32° SSE
Cosmos 2369 3.9 21:49:58 10° NNW 21:55:40 67° WSW 21:58:31 30° S
CZ-2C R/B 4.0 21:51:14 10° N 21:55:43 64° WNW 21:58:48 19° SSW
USA 267 3.6 21:50:14 10° ENE 21:56:18 40° SE 21:59:31 25° S
SL-4 R/B 4.3 22:04:44 10° ENE 22:04:44 10° ENE 22:04:46 10° ENE
In-Cosmos 22 Rocket 4.1 21:59:05 33° SSE 22:01:34 67° E 22:06:57 10° NNE
SJ 16-02 3.2 21:58:51 10° NNE 22:02:04 19° ENE 22:03:35 16° E
COSMOS 2406 4.4 21:57:18 10° SW 22:02:46 44° WNW 22:08:16 10° NNE
Cosmos 1825 2.1 22:08:00 57° ESE 22:08:14 59° E 22:11:55 10° NNE
Cosmos 1867 3.7 22:07:59 10° NW 22:13:23 62° WSW 22:15:18 39° S
Cosmos 2366 rocket 4.0 22:09:07 10° N 22:15:29 77° E 22:18:15 36° SSE
Cosmos 1869 3.2 22:14:09 10° N 22:18:02 64° E 22:18:25 60° ESE
Cosmos 2218 Rocket 4.0 22:15:31 10° N 22:21:58 86° E 22:24:42 37° S
ARIANE 5 R/B 3.3 22:21:46 34° SSW 22:23:11 46° W 22:27:27 10° NNW
Cosmos 2322 Rocket 3.2 22:18:44 10° N 22:24:00 38° ENE 22:26:28 26° ESE
Terra 3.0 22:22:57 24° SW 22:25:00 35° W 22:29:22 10° NNW
GP-B 3.2 22:20:48 10° N 22:25:13 72° W 22:26:26 46° SSW
Meteor 1-27 4.1 22:19:57 10° N 22:25:33 89° E 22:27:28 43° S
USA 276 3.0 22:25:57 10° NW 22:28:42 43° NNE 22:28:42 43° NNE
SAR-Lupe-4 3.5 22:25:49 10° N 22:29:24 77° WNW 22:29:35 74° WSW
FALCON 9 DEB 3.4 22:27:46 10° NW 22:30:31 60° NW 22:30:31 60° NW
Cosmos 1959 Rocket 4.4 22:25:53 10° N 22:32:02 83° W 22:34:27 40° S
Cosmos 2278 4.0 22:31:56 10° NNW 22:37:34 59° WSW 22:39:18 41° SSW
Cosmos 1633 2.9 22:39:00 55° NE 22:39:00 55° NE 22:41:54 10° NNE
Okean 1-7 Rocket 4.1 22:40:57 40° SW 22:42:14 56° W 22:46:41 10° N
Cosmos 1758 Rocket 3.5 22:42:24 60° ESE 22:42:36 61° E 22:46:57 10° NNE
Cosmos 2333 Rocket 4.0 22:40:05 10° N 22:44:41 24° NE 22:48:05 15° E
Cosmos 2082 Rocket 4.0 22:41:43 10° WSW 22:46:37 29° NW 22:51:32 10° N
Cosmos 1486 Rocket 4.3 22:43:46 10° NNW 22:48:53 57° WSW 22:50:04 46° SSW
ASTEX 1 4.3 22:44:20 10° N 22:49:05 45° WNW 22:51:10 29° SW
Cosmos 1606 3.3 22:50:52 10° N 22:54:21 47° ENE 22:54:21 47° ENE
Cosmos-2242 2.9 22:50:48 10° N 22:55:03 72° E 22:55:10 71° E
Cosmos 1812 Rocket 3.4 22:51:20 10° N 22:55:49 87° W 22:56:09 76° S
ADEOS Rocket 3.8 22:53:13 34° SE 22:56:31 58° ENE 23:04:05 10° N
Cosmos 1340 Rocket 4.1 22:58:42 29° ENE 22:58:42 29° ENE 23:01:31 10° NNE
Cosmos 2360 Rocket 2.9 22:53:07 10° NNW 22:58:33 45° ENE 23:00:31 33° ESE
Gbstr 26 Del rocket 2.8 22:59:00 82° ESE 22:59:00 82° ESE 23:03:44 10° ENE
Cosmos 1602 Rocket 3.9 23:05:35 49° WSW 23:06:10 53° W 23:10:24 10° N
Cosmos 1821 Rocket 3.9 23:03:26 10° N 23:09:40 84° W 23:11:22 51° S
Cosmos 44 3.4 23:14:09 55° E 23:14:09 55° E 23:18:05 10° NE
Cosmos 1833 4.3 23:14:26 53° SE 23:14:57 55° ESE 23:20:25 10° NNE
Cosmos 1354 Rocket 4.0 23:13:36 10° NNW 23:18:52 65° WSW 23:19:33 58° SSW
Cosmos 2237 4.1 23:15:40 10° NNW 23:21:25 82° WSW 23:22:30 60° S
ALOS 2 2.5 23:21:37 81° E 23:21:42 82° ENE 23:26:06 10° N
Spot 4 3.9 23:21:49 60° SW 23:22:13 63° WSW 23:27:00 10° NNW
CENTAUR R/B 3.7 23:22:31 23° ESE 23:22:31 23° ESE 23:27:08 10° ENE
ERS-2 3.6 23:20:45 10° NNE 23:22:56 28° ENE 23:22:56 28° ENE
Cosmos 2058 3.0 23:29:58 74° NW 23:29:58 74° NW 23:33:59 10° N
Nadezhda 3 Rocket 4.1 23:28:02 45° SW 23:29:56 68° W 23:36:05 10° N
Cosmos 1980 Rocket 4.4 23:28:22 10° WNW 23:30:19 12° W 23:31:53 11° WSW
COSMOS 2428 4.4 23:26:23 10° N 23:31:12 27° NE 23:34:37 16° E
Cosmos 1777 Rocket 3.9 23:27:14 10° NNW 23:32:32 76° WSW 23:33:07 67° SSW
H-2A R/B 3.5 23:28:37 10° N 23:32:48 71° WNW 23:32:48 71° WNW
Cosmos 1953 Rocket 3.5 23:33:03 76° ENE 23:33:03 76° ENE 23:37:21 10° N
SL-16 R/B 2.6 23:28:43 10° NW 23:34:05 45° WSW 23:34:48 43° SW
Cosmos 2219 Rocket 3.3 23:29:00 10° N 23:34:18 38° ENE 23:36:41 27° ESE
ATLAS 5 CENTAUR R/B 4.2 23:35:22 10° WNW 23:37:39 15° NNW 23:40:07 10° N
USA 267 3.6 23:33:03 10° NE 23:39:31 65° NW 23:45:57 10° WSW
SJ 16-02 2.1 23:36:38 10° NNW 23:40:31 42° W 23:40:31 42° W
SL-4 R/B 3.1 23:40:05 31° NW 23:40:54 36° NNW 23:44:19 10° NE
Cosmos 1825 Rocket 3.9 23:41:10 53° W 23:41:17 53° W 23:45:33 10° N
Meteor 2-2 Rocket 4.3 23:36:51 10° NNW 23:42:53 80° W 23:44:11 57° S
Cosmos 2221 2.6 23:48:00 10° N 23:52:14 72° ENE 23:52:14 72° ENE
